CAPE
310 230 429 1333 2539 2214 1935 1723 1570 1329 1188 989 833 688 345 169 26 18 1 0 0 1 2 1 0 0 0 0 7 10 6 17 29 24 14 109 142 272 296 360 393 753 980
0 54 963 1636 1897 1989 1554 1143 969 1098 1003 589 311 39 0 0 0 0 0 0 0 0 0 1 9 24 52 64 67 97 76 91 126 146 252 98 226 238 316 468 415 346 751
914 1077 1283 1372 1439 1398 1272 992 903 683 391 43 0 0 0 0 0 0 0 0 1 10 21 44 48 60 95 114 153 115 101 102 113 119 103 103 117 114 194 367 398 444 347
823 1160 1281 1165 1180 944 874 684 681 205 4 0 0 0 0 0 0 0 2 27 56 54 77 87 81 74 102 112 91 75 101 116 181 122 80 135 96 236 127 147 154 265 318
882 815 958 901 1010 1058 909 633 267 54 0 0 0 0 0 0 8 23 45 72 110 78 95 77 80 56 22 23 18 60 110 69 65 80 50 94 32 51 201 80 112 144 317
745 786 839 904 893 929 694 392 160 2 0 0 0 0 0 10 0 0 0 71 102 99 100 89 76 81 43 0 0 0 0 6 24 45 48 98 278 137 95 115 149 221 202
572 689 747 653 395 422 320 237 73 28 16 3 3 15 41 90 0 0 0 23 71 80 65 73 58 47 28 17 0 0 6 2 5 27 37 42 198 366 331 300 234 223 234
81 61 120 163 108 166 141 148 95 100 88 88 86 99 134 34 0 0 0 36 57 56 68 76 71 48 13 0 0 29 22 21 27 27 45 48 51 48 210 377 294 317 246
0 8 2 75 95 70 121 140 98 114 124 147 125 177 154 126 0 0 0 25 54 65 48 46 52 37 0 0 0 34 47 38 19 0 0 0 0 0 0 8 39 94 139
14 41 68 37 0 3 110 140 95 130 99 180 157 133 19 66 0 0 0 28 73 44 65 55 1 8 0 0 0 53 62 50 51 50 13 3 1 36 0 24 78 82 90
1 19 36 52 51 68 99 120 155 164 164 151 105 100 74 41 64 0 0 33 75 49 33 52 59 0 0 0 0 24 49 6 29 102 76 88 93 151 148 164 145 194 129
1 10 32 62 54 96 164 166 142 135 46 43 62 80 92 71 0 0 0 0 0 17 85 47 70 0 0 0 0 0 0 0 94 142 119 114 62 52 80 132 151 148 63
44 95 113 83 88 102 128 133 41 60 51 62 57 40 31 43 53 0 0 0 0 2 10 0 0 0 0 0 0 0 0 81 111 92 78 101 79 84 77 94 112 108 57
80 71 67 41 82 116 89 58 70 67 59 49 30 27 71 51 41 24 17 7 0 0 0 1 4 0 0 3 28 32 51 83 69 100 43 54 87 212 99 66 106 164 86
2 0 0 6 59 83 30 34 44 35 13 50 51 36 39 29 6 0 0 0 0 0 0 17 21 36 51 56 32 60 60 56 76 49 50 51 62 128 77 80 64 194 234
35 2 0 0 37 45 52 80 0 0 0 0 0 3 35 0 0 0 0 0 0 0 20 43 54 47 30 18 20 22 23 26 21 56 76 66 79 77 21 38 52 213 435
52 63 9 22 55 0 12 75 70 0 0 0 0 0 0 0 0 0 0 0 0 0 51 45 10 22 21 29 35 40 41 49 70 27 49 39 34 3 8 25 53 56 283
87 0 78 17 0 8 42 96 99 108 74 87 0 0 0 0 0 0 0 1 20 20 38 16 15 30 25 28 46 61 71 75 73 39 46 9 1 4 5 28 14 95 182
64 36 18 0 3 0 46 87 80 76 57 59 45 2 0 0 0 0 0 38 32 27 25 14 6 17 29 42 49 47 65 62 47 40 36 1 0 3 10 9 38 10 3
43 1 0 22 27 40 43 24 30 69 62 37 98 100 88 66 22 36 32 28 46 32 27 26 15 8 13 25 39 33 24 47 69 24 31 37 2 8 17 2 7 4 5
47 13 0 26 22 40 56 21 47 38 70 118 169 16 0 32 62 48 55 29 24 45 37 27 21 7 14 23 23 38 19 54 70 27 51 26 0 14 12 10 4 5 19
61 45 20 42 55 22 0 11 80 119 126 160 196 106 0 114 86 66 43 33 25 21 38 36 19 9 11 26 17 27 9 0 35 36 44 41 5 8 16 4 5 12 55
76 52 43 20 18 3 25 95 99 90 53 45 62 85 42 32 19 44 55 33 20 15 30 30 31 21 14 18 17 12 9 0 0 5 54 55 2 34 2 4 7 2 3
28 39 34 50 20 48 69 52 43 10 24 19 31 25 12 2 1 13 13 22 14 17 15 21 23 30 25 17 12 6 0 0 0 2 23 52 27 22 4 11 0 0 0
0 4 12 20 23 30 41 17 24 23 7 15 8 0 2 19 20 19 30 21 18 18 10 12 10 15 20 13 1 0 0 0 0 0 16 89 36 34 25 1 3 1 2
1 3 6 8 14 16 19 20 19 10 12 21 31 32 18 13 9 9 7 7 12 8 8 11 12 12 13 7 0 0 0 0 0 0 0 74 23 35 21 43 4 17 31
CIN
-96 -41 -88 -20 -1 -1 -5 -7 -1 0 0 0 0 0 -5 -10 -21 -32 -10 0 0 0 0 0 0 0 0 0 0 0 0 0 0 0 0 0 0 0 0 0 -1 0 0
0 -175 -6 0 0 0 0 -5 -2 0 0 0 -1 -13 -1 0 0 0 0 0 0 0 0 0 0 0 0 0 0 0 0 0 0 0 0 0 0 0 0 0 0 0 0
-8 0 0 0 0 -1 -3 -6 0 -2 -11 -35 0 0 0 0 0 0 0 0 0 0 0 0 0 0 0 0 0 0 0 0 0 0 0 0 0 -2 0 0 0 0 0
-30 -2 0 -3 -3 -12 -5 -5 -2 -24 -14 0 0 0 0 0 0 0 0 0 0 0 0 0 0 0 0 0 0 0 -2 0 0 -1 -4 0 0 -1 0 -1 -1 0 0
0 0 0 -3 -2 0 0 -2 -15 -26 0 0 0 0 0 0 0 0 0 0 0 0 0 0 0 -20 -54 -38 -11 0 0 0 0 0 0 0 -10 -8 -2 0 -1 -1 0
0 -1 0 0 0 0 0 -6 -6 -16 0 0 0 0 0 0 0 0 0 -6 0 0 0 0 0 -4 -18 -1 0 0 0 -5 0 0 0 0 0 -2 0 -1 0 0 0
0 0 0 0 -1 -2 -3 0 0 -3 -6 -1 -1 -2 0 -1 0 0 0 -22 0 0 0 0 0 0 -3 0 0 0 -1 -40 -26 -1 0 0 0 0 0 0 0 0 0
0 0 -5 -10 -1 -4 -1 -3 -3 0 0 -1 0 -2 -3 -18 0 0 0 -16 0 0 0 0 0 0 -2 0 0 0 -1 0 0 0 0 0 0 -7 0 0 0 0 0
0 -18 -2 -3 -3 -4 0 -6 0 0 -6 -5 -2 0 0 -1 0 0 0 -6 0 0 0 0 0 0 0 0 0 0 0 0 -2 0 -2 -9 0 0 0 0 0 0 -1
-91 -55 -12 -9 0 -1 -8 -10 -22 -13 -1 -1 0 -1 -4 -1 0 0 0 0 0 0 0 -1 -25 -14 0 0 0 0 0 0 0 0 -8 -1 -2 -8 -1 -2 0 0 0
-24 -16 -9 -10 -8 -8 -11 -18 -12 -4 -5 -2 -2 0 0 0 0 0 0 -4 0 0 0 0 -16 0 0 0 0 -13 -3 -9 -2 0 0 0 0 0 -2 0 0 -1 -1
-25 -13 -22 -21 -14 -9 -12 -6 -1 0 0 0 0 0 -2 -2 0 0 0 0 0 -18 0 0 -1 0 0 0 0 0 0 0 0 0 0 -1 0 0 0 0 0 -3 0
-7 -1 -1 -4 -4 -5 0 0 0 0 0 0 0 0 0 -1 -19 0 0 0 0 -8 -11 -1 0 0 0 0 0 0 0 0 0 0 0 0 0 0 0 0 0 0 0
-1 -5 -1 -7 -3 0 0 -4 0 0 -4 -1 0 -1 -1 0 0 0 0 0 0 0 0 -2 0 0 0 -2 -2 -1 0 0 0 0 0 0 0 0 -5 0 0 0 0
-28 0 -14 -36 -3 -1 -3 -5 -3 -2 -4 -1 0 0 0 0 -2 0 0 0 0 0 0 0 0 0 0 0 0 0 0 0 0 0 0 0 0 -5 0 0 -3 0 0
-15 -17 0 0 0 -1 0 -17 0 0 0 0 0 -1 0 0 0 0 0 0 0 0 0 0 0 0 0 0 -3 -1 0 -2 -1 0 0 0 0 -3 -1 -1 -1 0 0
-35 -30 -9 -1 0 0 -7 0 0 0 0 0 0 0 0 0 0 0 0 0 0 0 0 0 -1 -1 0 0 0 -1 -1 -1 0 -1 0 0 0 -1 0 0 0 0 0
-10 0 0 -2 -2 0 0 0 0 0 0 0 0 0 0 0 0 0 0 0 -2 -1 0 0 0 0 0 -1 0 0 0 0 -1 -1 -1 -4 0 0 0 0 0 -9 0
0 0 0 0 0 0 0 0 0 0 0 0 -5 -3 0 0 0 0 0 0 0 0 0 -3 -3 0 0 0 0 0 0 0 -1 -1 0 -7 0 0 0 0 -1 -1 0
-1 -2 0 0 0 0 0 0 -1 0 0 0 0 0 0 0 -14 -4 0 0 0 0 0 0 -2 -2 -1 0 0 0 0 0 0 -1 0 0 -1 0 0 0 0 0 0
0 0 0 0 0 0 0 -9 0 0 0 0 0 -7 0 -11 0 0 0 0 0 0 0 0 0 -1 0 0 0 0 -1 0 0 -5 0 -2 0 0 0 0 0 0 -1
0 0 0 0 -2 -6 0 -23 0 0 0 0 0 -6 0 -1 0 0 0 0 0 0 0 0 0 0 0 0 0 0 -1 0 0 0 0 0 -9 -1 0 0 0 0 0
0 0 0 -2 -20 -14 -4 0 -1 -1 0 0 0 0 0 0 -1 0 0 0 -1 0 0 0 0 0 0 0 0 0 0 0 0 0 -1 -2 -9 0 -11 -1 -2 0 -2
0 0 0 0 -5 0 0 0 0 -2 0 0 0 0 0 0 -2 -2 -2 0 0 0 0 0 0 0 0 0 0 0 0 0 0 0 0 -5 -3 -5 -10 -4 0 0 0
0 0 0 0 0 0 0 0 0 0 -2 0 -3 0 -2 0 0 0 0 0 0 0 0 0 0 0 0 0 0 0 0 0 0 0 -1 -3 0 -3 -2 0 -2 -2 0
0 0 0 0 0 0 0 0 0 0 0 0 0 0 0 0 0 0 0 0 0 0 0 0 0 0 0 0 0 0 0 0 0 0 0 0 0 0 -1 0 -1 -1 -1
Wind_Speed
16 15 11 12 5 5 6 8 6 7 6 5 7 7 5 5 3 1 2 2 2 3 4 4 6 6 6 8 8 8 9 9 10 9 10 10 11 12 12 12 11 7 10
14 14 12 6 8 7 6 7 7 8 8 9 9 7 5 3 2 1 2 4 4 4 4 5 7 7 7 8 9 7 9 10 10 13 12 11 11 11 11 12 11 9 7
12 10 10 9 8 9 9 8 9 9 10 9 7 5 3 2 3 1 2 4 5 5 6 8 9 8 8 9 9 10 10 10 10 11 13 12 12 10 10 11 12 11 9
11 12 11 10 10 10 10 10 10 9 8 6 4 4 3 3 2 1 2 5 6 6 6 7 9 9 8 8 10 11 11 9 12 13 10 13 11 9 9 10 11 9 9
13 11 11 9 10 11 11 10 9 8 6 5 5 4 2 1 2 3 5 7 8 8 8 9 10 5 5 6 7 9 11 12 12 13 13 11 7 9 7 9 11 10 9
11 10 9 10 9 9 9 9 8 7 6 6 5 3 3 4 8 4 5 8 7 9 9 10 9 8 8 5 6 8 10 12 15 14 14 13 12 12 10 11 7 10 11
8 9 8 8 6 6 7 7 7 5 5 5 4 5 5 2 6 2 6 9 8 9 9 8 7 4 5 8 9 10 13 13 16 14 16 17 17 15 13 11 12 9 10
10 9 7 4 7 6 2 4 4 4 4 4 4 4 5 5 5 4 8 10 8 6 7 6 6 7 7 7 12 12 11 11 10 10 12 12 12 11 11 10 11 12 12
10 7 3 5 5 3 6 5 2 3 4 4 4 4 4 3 4 2 8 8 7 8 7 8 5 7 10 3 10 13 12 12 5 9 11 13 15 14 11 11 12 13 11
5 5 5 5 3 2 3 1 1 4 4 6 5 4 2 5 6 5 7 8 8 7 9 4 11 7 4 1 10 12 12 11 11 11 9 8 10 12 16 12 11 12 11
3 2 4 4 3 2 2 3 3 4 4 4 5 5 4 5 6 5 7 9 9 9 9 6 4 2 6 8 8 11 10 10 14 11 8 7 5 7 7 9 11 11 12
3 3 5 6 4 4 4 3 3 5 6 7 6 7 5 3 4 6 5 6 8 6 9 8 8 13 11 13 11 6 11 11 10 10 10 6 7 8 7 8 10 11 10
4 6 8 9 8 7 6 6 7 5 6 7 6 5 6 7 7 6 4 5 3 6 6 8 12 12 15 15 10 11 13 8 8 10 8 8 8 8 11 9 8 9 10
11 11 9 8 7 5 5 7 6 6 5 3 4 5 5 5 7 7 7 7 5 7 8 9 5 10 13 11 9 6 8 5 8 8 9 9 10 7 8 6 8 5 7
12 10 12 10 8 7 4 4 7 7 8 8 5 5 4 7 7 5 6 9 9 10 12 8 7 7 8 9 10 10 9 9 9 9 10 10 10 9 10 6 5 6 6
4 5 5 5 6 5 6 4 7 10 5 6 6 8 5 9 6 4 2 4 8 11 8 7 8 10 10 9 7 7 7 8 8 10 8 10 10 9 8 8 4 8 7
6 5 3 2 3 4 6 4 3 4 4 4 4 5 6 6 5 3 9 8 10 12 8 9 8 7 7 7 8 7 7 7 11 8 8 9 10 8 7 7 6 5 6
5 3 3 4 3 5 4 3 2 3 5 6 4 5 6 3 2 3 10 10 7 7 8 9 7 7 8 9 9 10 11 11 9 9 8 9 7 8 8 7 6 6 4
4 5 3 3 2 4 2 1 3 3 2 1 8 4 7 7 6 8 10 8 8 8 8 6 6 7 7 10 11 9 11 11 10 8 9 4 7 7 9 8 1 1 10
7 7 4 2 3 2 3 3 3 2 2 3 4 4 4 2 4 5 4 6 8 7 8 9 5 6 7 7 9 11 13 14 11 10 12 11 9 7 7 7 9 10 9
6 6 4 1 2 5 4 8 5 4 4 5 3 2 3 6 5 3 4 5 6 7 8 9 9 7 7 8 11 11 9 14 11 10 12 11 8 7 7 7 9 9 9
3 1 1 3 7 5 3 2 5 7 7 6 5 2 0 6 3 4 4 6 6 7 7 8 9 9 8 9 9 11 11 11 14 12 13 11 8 8 7 7 8 7 7
3 3 3 4 2 1 4 5 4 3 4 6 7 6 7 8 7 6 7 6 7 7 7 8 8 9 9 9 8 9 10 8 10 13 11 9 6 6 5 5 7 7 7
6 5 4 3 6 5 2 1 5 4 8 8 8 8 7 5 5 4 4 6 6 7 7 7 8 11 10 10 9 10 11 10 8 12 15 9 7 5 4 5 5 5 3
8 6 6 6 5 5 5 7 7 8 8 7 6 4 4 4 5 6 6 7 8 8 9 9 8 11 12 12 13 15 14 12 11 11 11 9 7 6 7 6 3 1 1
8 8 7 7 7 7 6 6 7 7 6 4 4 5 8 7 8 8 8 8 8 7 8 7 8 11 11 10 14 13 8 11 11 13 10 8 3 4 2 7 7 3 3
Wind_Direction
114 125 209 243 228 152 177 173 172 174 180 181 150 161 167 145 140 89 13 332 331 349 334 309 311 305 303 310 299 292 288 288 293 302 312 297 306 296 295 294 283 274 263
145 163 190 175 178 163 146 154 171 175 154 147 148 154 144 128 99 30 359 22 358 337 321 310 306 299 303 280 270 292 294 297 285 302 294 287 281 283 280 274 281 275 249
153 152 149 162 154 149 152 152 153 151 147 148 152 147 137 128 141 132 8 348 318 303 304 300 301 302 294 299 306 293 303 296 292 294 299 295 281 287 281 274 272 260 272
149 158 161 156 150 144 146 154 159 152 149 148 132 124 154 147 169 261 288 284 289 288 293 293 294 293 291 307 298 302 284 288 290 279 274 267 277 281 275 273 274 283 282
142 148 140 136 144 153 161 159 155 156 158 161 173 174 175 174 228 285 300 293 291 300 293 290 289 358 289 297 308 309 309 292 299 298 291 297 290 287 293 301 295 290 272
123 121 131 146 152 163 151 150 163 164 177 200 205 241 240 272 78 52 311 292 293 290 296 303 301 242 188 250 246 269 286 289 286 285 286 284 284 276 276 283 304 288 292
121 129 128 125 141 159 155 166 176 184 197 213 237 262 270 225 101 214 252 286 300 307 298 305 302 342 305 344 322 281 261 239 244 280 280 277 283 282 286 278 268 277 282
96 88 102 100 110 144 164 194 198 217 238 246 262 284 281 108 136 237 257 274 298 313 302 300 305 301 63 359 328 319 321 310 309 308 288 282 291 316 304 286 282 281 270
80 73 71 170 140 120 219 191 264 306 312 304 297 285 294 124 129 290 311 307 313 303 299 302 326 305 96 70 313 315 326 314 303 231 270 283 281 282 275 282 269 266 266
143 182 163 138 152 109 78 156 340 310 295 318 339 6 95 328 99 25 346 305 314 309 298 315 179 257 24 64 309 301 308 336 322 321 308 272 261 267 241 249 269 263 258
39 117 135 112 94 60 37 33 13 27 12 360 329 317 290 43 65 41 356 314 338 333 322 326 60 152 359 311 272 278 310 316 300 292 320 320 290 255 254 230 250 262 277
128 119 86 60 22 61 71 69 47 5 321 322 316 314 19 38 79 81 3 340 338 314 311 326 323 358 319 291 280 320 292 283 280 288 293 298 317 328 319 300 271 256 271
86 50 57 58 54 39 20 2 332 330 321 339 350 328 3 36 103 113 85 354 327 311 323 313 287 276 269 267 225 267 270 278 309 305 324 315 313 340 320 308 279 266 262
78 63 55 57 16 19 347 349 330 347 3 346 359 25 63 86 46 23 11 8 345 319 353 302 295 271 267 268 277 307 327 330 317 325 319 325 319 327 326 316 290 253 241
69 47 28 16 358 331 341 18 348 55 13 340 32 46 48 54 48 17 360 13 359 346 316 326 341 342 338 354 353 344 340 337 326 322 312 317 323 333 332 310 289 260 251
83 43 25 333 335 334 342 136 71 87 52 41 43 24 60 63 35 22 258 286 319 319 324 1 6 6 6 354 340 332 337 334 329 317 322 322 336 342 318 310 273 284 247
42 17 4 327 15 4 354 356 102 129 132 132 113 71 55 40 45 334 299 280 269 312 17 22 14 359 347 347 351 347 345 342 328 332 324 5 341 311 303 303 291 259 248
19 130 36 76 16 1 29 25 341 126 149 160 128 111 113 109 81 334 302 307 19 15 10 28 14 1 354 345 337 348 350 349 349 334 334 10 333 317 309 299 276 242 170
31 81 96 78 43 10 6 158 98 59 32 51 117 191 172 187 223 256 278 2 13 16 2 45 13 345 8 353 357 356 350 355 338 346 329 19 342 324 319 317 250 58 108
88 56 89 235 93 63 61 48 23 14 348 358 9 19 16 266 183 228 25 3 5 18 8 359 26 351 4 1 12 360 354 343 3 352 338 14 351 339 350 359 69 83 85
94 131 353 276 37 39 351 31 346 327 331 330 318 87 33 311 315 359 23 355 13 6 16 350 357 18 346 9 1 350 16 350 350 356 334 29 0 1 24 47 75 84 93
61 74 114 23 38 32 54 271 300 323 323 350 349 65 207 303 307 338 352 336 12 10 8 358 356 3 359 356 9 351 10 354 346 346 337 26 12 16 33 46 54 62 84
50 17 29 101 203 245 242 303 318 301 27 31 37 49 44 30 20 14 9 337 353 357 359 358 353 5 8 347 4 350 11 347 329 325 339 344 33 19 23 38 56 60 65
28 43 70 23 16 328 55 43 81 52 41 40 42 39 33 24 3 5 331 0 345 341 354 353 356 359 355 352 356 356 20 354 326 325 333 327 73 25 47 64 49 63 78
31 31 42 36 34 30 54 39 37 48 55 52 50 22 330 331 8 7 353 355 351 347 353 347 347 348 351 349 10 355 1 335 329 320 329 330 66 61 129 93 122 134 184
52 53 47 43 34 33 30 33 35 40 53 42 17 6 17 9 6 11 359 3 349 346 344 344 352 349 351 11 7 342 333 337 335 329 326 331 52 70 57 103 109 136 146